Location: Veytaux
(46.4185°N, 6.9320°E)
Time: 08:26:53
(UTC+00:00)

Helios 1A - Pass Details

Date: 27 May 2022
Orbit: 582 x 600 km, 98.2° (Epoch: 29 June)

Event Time Altitude Azimuth Distance (km) Brightness Sun altitude
Exits shadow 01:25:54 10° 144° (SE) 1,931 5.3 -17.4°
Reaches altitude 10° 01:25:54 10° 144° (SE) 1,928 5.3 -17.4°
Maximum altitude 01:29:55 48° 71° (ENE) 790 3.9 -17.0°
Drops below altitude 10° 01:34:00 10° 357° (N) 1,951 6.5 -16.7°
Sets 01:36:13 0° 352° (N) 2,860 7.3 -16.5°
